Hourly Data Report for September 26, 2022

TORONTO CITY
ONTARIO
Current Station Operator: ECCC - MSC

43°40'00.000" N
79°24'00.000" W
112.50 m
6158355
71508
XTO

Download Data

Hourly Data (September 2022)
Hourly Data Report for September 26, 2022
TIME
LST
Temp Definition
°C
Dew Point Definition
°C
Rel Hum Definition
%
Precip. Amount Definition
mm

Wind Dir Definition
10's deg

Wind Spd Definition
km/h
Visibility Definition
km
Stn Press Definition
kPa
Hmdx Definition


Wind Chill Definition


Weather Definition


00:00 13.5 10.8 84 0.1       98.66     LegendNANA
01:00 13.3 10.5 83 0.1       98.64     LegendNANA
02:00 13.0 10.3 84 0.0       98.62     LegendNANA
03:00 12.7 10.0 83 0.0       98.59     LegendNANA
04:00 12.3 9.9 85 0.0       98.58     LegendNANA
05:00 12.0 9.7 86 0.0       98.59     LegendNANA
06:00 11.5 9.3 87 0.0       98.60     LegendNANA
07:00 11.8 9.5 86 0.0       98.59     LegendNANA
08:00 12.9 9.9 82 0.0       98.61     LegendNANA
09:00 13.4 10.1 80 0.0       98.63     LegendNANA
10:00 14.4 10.0 75 0.0       98.62     LegendNANA
11:00 15.6 9.6 67 0.0       98.61     LegendNANA
12:00 15.8 9.9 68 0.0       98.56     LegendNANA
13:00 17.0 8.5 58 0.0       98.54     LegendNANA
14:00 17.0 9.3 61 0.0       98.55     LegendNANA
15:00 14.1 10.8 80 0.7       98.61     LegendNANA
16:00 13.2 11.1 87 0.7       98.65     LegendNANA
17:00 13.5 11.1 85 0.3       98.64     LegendNANA
18:00 13.7 10.4 80 0.0       98.64     LegendNANA
19:00 13.2 10.9 86 1.5       98.64     LegendNANA
20:00 13.4 10.6 83 0.1       98.68     LegendNANA
21:00 13.5 10.7 83 0.2       98.74     LegendNANA
22:00 13.3 11.0 86 0.4       98.80     LegendNANA
23:00 13.6 10.5 81 0.0       98.86     LegendNANA

Notes on Data Quality.

Legend

  • E = Estimated
  • M = Missing
  • NA = Not Available*
  • [empty] = Indicates an unobserved value
Date modified: